Regional Weather Roundup
Issued by NWS

Home | Current Version | Previous Version | Graphics & Text | Print | Product List | Glossary On
Versions: 1 2 3 4 5 6 7 8 9 10 11 12 13 14 15 16 17 18 19 20 21 22 23 24 25 26 27 28 29 30 31 32 33 34 35 36 37 38 39 40 41 42 43 44 45 46 47 48 49 50
000
ASUS45 KBOI 010010
RWRID
WEATHER ROUNDUP FOR IDAHO
NATIONAL WEATHER SERVICE BOISE ID
600 PM MDT TUE MAR 31 2015

NOTE: "FAIR" INDICATES FEW OR NO CLOUDS BELOW 12000 FEET
WITH NO SIGNIFICANT WEATHER AND/OR OBSTRUCTIONS TO VISIBILITY

IDZ012-014-010100-
SOUTHWEST IDAHO


CITY           SKY/WX    TMP DP  RH WIND       PRES   REMARKS
BOISE          CLOUDY    52  31  44 NW24G32   29.94R
CALDWELL       PTSUNNY   54  28  37 NW21G31   29.95R
MOUNTAIN HOME  PTSUNNY   56  36  47 NW40G48   29.87R
$$

IDZ016-017-010100-
SOUTHCENTRAL IDAHO


CITY           SKY/WX    TMP DP  RH WIND       PRES   REMARKS
BURLEY         MOSUNNY   68  25  19 W15       29.73F
JEROME         SUNNY     65  31  28 W28G33    29.78R
TWIN FALLS     MOSUNNY   66  33  29 W26G35    29.78R
$$

IDZ019>023-010100-
SOUTHEAST IDAHO


CITY           SKY/WX    TMP DP  RH WIND       PRES   REMARKS
IDAHO FALLS    PTSUNNY   68  21  16 SW20G35   29.75F
POCATELLO      MOSUNNY   67  23  19 S9        29.76F
REXBURG        PTSUNNY   67  19  16 SW21G32   29.74F
$$

IDZ006-010-011-018-031-032-010100-
CENTRAL IDAHO MOUNTAINS


CITY           SKY/WX    TMP DP  RH WIND       PRES   REMARKS
MCCALL         CLOUDY    43  29  57 W14       29.88R
HAILEY         MOSUNNY   61  27  27 SW16G25   29.80F
STANLEY          N/A     44  33  65 CALM      29.88R
SALMON         MOSUNNY  N/A N/A N/A W18G25    29.66S
CHALLIS        CLOUDY    55  26  32 W25G33    29.76R
$$

IDZ002-004-006-007-026-010100-
NORTHERN IDAHO


CITY           SKY/WX    TMP DP  RH WIND       PRES   REMARKS
LEWISTON       CLOUDY    54  31  41 W13       29.96R
LOWELL           N/A     45  42  89 CALM      30.02R
COEUR D`ALENE  CLOUDY    50  32  50 SW15      29.87R
MULLAN PASS    LGT SNOW  28  27  96 VRB7      29.85R FOG     WCI  21
$$


USA.gov is the U.S. government's official web portal to all federal, state and local government web resources and services.